Weather in Mayrtup

Russia / Chechen Republic     43°12′13″N   46°07′51″E
temp.,
°C
wind,
m/s
gust,
m/s
humid.,
%
clouds,
%
prec.,
mm/h
press.,
hPa
HPBL,
m
26 october, tue
tue2600:00+5w4693100 1.6 1032879
03:00+5wsw3592100 3.0 1032620
06:00+5wsw358798 0.1 1033452
09:00+7nw347130 0.1 1033788
12:00+7nnw2363100 0.1 10321298
15:00+7n116197 0.1 1032917
18:00+5ese116997 0.0 103453
21:00+5e237017 0.0 1034178
27 october, wed
wed2700:00+3ese22785 0.0 103320
03:00+2e23821 0.0 103350
06:00+1e12844 0.0 103224
09:00+6ene24651 0.0 1031408
12:00+11ene45470 0.0 1028867
15:00+12ene55460 0.0 1026815
18:00+7e24730 0.0 102576
21:00+5ssw11760 0.0 102513
28 october, thu
thu2800:00+5sw21760 0.0 102310
03:00+4sw22760 0.0 102413
06:00+4ssw22740 0.0 102412
09:00+10nnw01530 0.0 1024215
12:00+13nw22450 0.0 1023654
15:00+14wnw34390 0.0 1022841
18:00+9wsw12550 0.0 102311
21:00+8sw22620 0.0 102320
29 october, fri
fri2900:00+7sw32660 0.0 102326
03:00+7sw22660 0.0 102419
06:00+6sw227035 0.0 102525
09:00+10w245461 0.0 1026384
12:00+12wnw3454100 0.0 1025907
15:00+13wnw2353100 0.0 1025979
18:00+10nw0165100 0.0 102710
21:00+9s1168100 0.0 102811
30 october, sat
sat3000:00+8s1172100 0.0 102811
03:00+8se117199 0.0 102910
06:00+7ese117075 0.0 103010
09:00+10ene22505 0.0 1031366
12:00+13ene45406 0.0 10301056
15:00+13ene56415 0.0 10291132
18:00+9e37565 0.0 1030173
21:00+7e117128 0.0 103021